Flag for Germany Weather past 2 weeks in Halle, Saxony-Anhalt, Germany

Now
68 °F

Broken clouds.


Feels Like: 68 °F
Forecast: 52 / 69 °F
Wind: 7 mph from West

Location: Leipzig-Schkeuditz

Current Time: Sep 30, 2014 at 1:59:36 PM

Latest Report: Sep 30, 2014 at 1:20 PM


Visibility: N/A

Pressure: 30.24 "Hg

Humidity: 73%

Dew point: 59 °F

Location of HalleLocation

Historic Weather in Halle — Graph

°F

Halle temperature yesterday

Maximum temperature yesterday: 77 °F (at 2:20 PM)
Minimum temperature yesterday: 54 °F (at 2:20 AM)
Average temperature yesterday: 63 °F

Past Weeks' High & Low Weather Summary

 TemperatureHumidityPressure
High77 °F (Sep 29, 2:20 PM)100% (Sep 16, 4:20 AM)30.36 "Hg (Sep 16, 4:20 AM)
Low45 °F (Sep 24, 2:20 AM)44% (Sep 17, 4:50 PM)29.86 "Hg (Sep 24, 4:50 PM)
Average59 °F84%30.06 "Hg
* Reported Sep 15 12:20 PM — Sep 30 12:50 PM, Halle, Weather by CustomWeather, © 2014

Note: Actual official high and low records may vary slightly from our data, if they occured in-between our weather recording intervals... More about our weather records

Advertising

Halle weather history for previous 24 hours

 ConditionsComfort  
Time TempWeatherWind HumidityBarometerVisibility
12:50 PM
Sep 30
68 °FBroken clouds.8 mph78%30.24 "HgN/A
12:20 PM68 °FPartly sunny.8 mph73%30.24 "HgN/A
11:50 AM66 °FPartly sunny.12 mph78%30.24 "HgN/A
11:20 AM66 °FScattered clouds.13 mph78%30.24 "HgN/A
10:50 AM66 °FScattered clouds.14 mph78%30.24 "HgN/A
10:20 AM66 °FScattered clouds.10 mph83%30.24 "HgN/A
9:50 AM63 °FSunny.8 mph94%30.24 "Hg10 mi
9:20 AM61 °FBroken clouds.5 mph100%30.24 "Hg5 mi
8:50 AM61 °FLight rain. Broken clouds.6 mph94%30.24 "Hg5 mi
8:20 AM61 °FLight rain. Broken clouds.6 mph94%30.24 "Hg5 mi
7:50 AM61 °FPassing clouds.5 mph88%30.21 "Hg5 mi
7:20 AM61 °FLight rain. Passing clouds.1 mph88%30.21 "HgN/A
6:50 AM59 °FPassing clouds.3 mph94%30.21 "HgN/A
6:20 AM61 °FClear.2 mph88%30.21 "Hg10 mi
5:50 AM61 °FClear.6 mph88%30.21 "Hg10 mi
5:20 AM61 °FPassing clouds.8 mph88%30.21 "HgN/A
4:50 AM61 °FPassing clouds.5 mph88%30.21 "HgN/A
4:20 AM61 °FPartly cloudy.5 mph88%30.21 "HgN/A
3:50 AM61 °FClear.6 mph88%30.21 "Hg10 mi
3:20 AM61 °FClear.5 mph88%30.21 "Hg10 mi
2:50 AM61 °FClear.7 mph88%30.21 "Hg10 mi
2:20 AM61 °FClear.7 mph83%30.21 "Hg10 mi
1:50 AM61 °FClear.7 mph83%30.21 "Hg10 mi
1:20 AM61 °FClear.7 mph83%30.21 "Hg10 mi
12:50 AM61 °FClear.6 mph88%30.21 "Hg10 mi
12:20 AM61 °FClear.6 mph88%30.21 "Hg10 mi
11:50 PM
Sep 29
63 °FClear.5 mph83%30.21 "Hg10 mi
11:20 PM63 °FClear.6 mph83%30.21 "Hg10 mi
10:50 PM63 °FClear.6 mph83%30.21 "Hg10 mi
10:20 PM63 °FClear.7 mph83%30.21 "Hg10 mi
9:50 PM63 °FClear.8 mph83%30.21 "Hg10 mi
9:20 PM64 °FClear.8 mph73%30.21 "Hg10 mi
8:50 PM64 °FClear.6 mph73%30.21 "Hg10 mi
8:20 PM66 °FClear.7 mph68%30.21 "Hg10 mi
7:50 PM66 °FSunny.8 mph73%30.21 "Hg10 mi
7:20 PM66 °FSunny.8 mph68%30.21 "Hg10 mi
6:50 PM66 °FSunny.10 mph73%30.18 "Hg10 mi
6:20 PM70 °FSunny.10 mph69%30.18 "Hg10 mi
5:50 PM72 °FSunny.9 mph65%30.18 "Hg10 mi
5:20 PM73 °FSunny.8 mph61%30.18 "Hg10 mi
4:50 PM75 °FSunny.12 mph54%30.18 "Hg10 mi
4:20 PM75 °FSunny.9 mph54%30.18 "Hg10 mi
3:50 PM75 °FSunny.12 mph54%30.18 "Hg10 mi
3:20 PM77 °FScattered clouds.10 mph47%30.18 "HgN/A
2:50 PM77 °FScattered clouds.9 mph47%30.18 "HgN/A
2:20 PM77 °FSunny.9 mph51%30.21 "Hg10 mi
1:50 PM75 °FSunny.10 mph57%30.21 "Hg10 mi
1:20 PM73 °FSunny.9 mph61%30.21 "Hg10 mi
Weather by CustomWeather, © 2014

See weather overviewHow to use our weather pages